KIRCHDORF Weather Reports


time (UTC)temp
C
wind
direction
speed
KPH
gust
KPH
rain 1hr
cm
rain 24hr
cm
rain mn
cm
humidity
%
barometer
mb
20260506043211 8 182 11.3 0.0 0.00 0.00 0.00 95 1007.5
20260506040211 8 232 3.2 0.0 0.00 0.00 0.00 94 1007.8
20260506033211 8 181 9.7 0.0 0.00 0.00 0.00 95 1008.0
20260506030212 8 200 9.7 0.0 0.00 0.00 0.00 95 1008.3
20260506023211 8 179 9.7 0.0 0.00 0.00 0.00 95 1008.4
20260506020212 9 160 11.3 0.0 0.00 0.00 0.00 95 1008.7
20260506013211 9 184 9.7 0.0 0.00 0.00 0.00 95 1008.8
20260506010212 10 175 11.3 0.0 0.00 0.00 0.00 95 1009.1
20260506003209 10 225 6.4 0.0 0.00 0.00 0.00 96 1009.0
20260506000211 9 194 11.3 0.0 0.00 0.00 0.00 96 1009.2
20260505233209 9 185 11.3 0.0 0.00 0.00 0.00 96 1009.4
20260505230209 9 200 8.0 0.0 0.00 0.00 0.00 95 1009.6
20260505223210 10 105 3.2 0.0 0.00 0.00 0.00 94 1009.7
20260505213211 10 169 8.0 0.0 0.00 0.00 0.10 93 1009.5
20260505210215 11 200 8.0 0.0 0.00 0.00 0.10 91 1009.5
20260505203209 11 240 12.9 0.0 0.00 0.00 0.10 89 1009.4
20260505200210 13 171 20.9 0.0 0.00 0.00 0.03 81 1009.5
20260505193209 15 256 27.4 0.0 0.00 0.00 0.03 76 1009.1
20260505190215 15 244 19.3 0.0 0.00 0.00 0.03 75 1008.4
20260505183212 15 215 11.3 0.0 0.00 0.00 0.03 76 1008.2
20260505180211 15 254 6.4 0.0 0.00 0.00 0.03 74 1007.7
20260505173210 15 306 6.4 0.0 0.00 0.00 0.03 75 1007.4
20260505170210 15 340 3.2 0.0 0.00 0.00 0.03 75 1006.9
20260505163211 15 59 6.4 0.0 0.00 0.00 0.03 74 1007.1
20260505153210 16 349 16.1 0.0 0.00 0.00 0.03 69 1007.3
20260505150216 16 347 16.1 0.0 0.00 0.00 0.03 73 1007.1
20260505140210 16 344 12.9 0.0 0.00 0.00 0.03 78 1007.2
20260505130210 15 325 16.1 0.0 0.00 0.00 0.03 87 1007.9
20260505123210 15 349 11.3 0.0 0.00 0.00 0.03 88 1008.1
20260505120210 16 286 17.7 0.0 0.00 0.00 0.00 82 1008.3
20260505113210 18 259 19.3 0.0 0.00 0.00 0.00 70 1008.0
20260505110211 18 318 14.5 0.0 0.00 0.00 0.00 65 1007.6
20260505100212 17 0 4.8 0.0 0.00 0.00 0.00 61 1007.7
20260505093212 18 276 4.8 0.0 0.00 0.00 0.00 62 1007.8
20260505090212 18 297 6.4 0.0 0.00 0.00 0.00 69 1008.1
20260505083211 17 242 8.0 0.0 0.00 0.00 0.00 70 1008.5
20260505080210 14 238 3.2 0.0 0.00 0.00 0.00 78 1008.6
20260505073210 14 214 4.8 0.0 0.00 0.00 0.00 78 1008.8
20260505070211 13 111 4.8 0.0 0.00 0.00 0.00 82 1009.1
20260505063211 11 182 8.0 0.0 0.00 0.00 0.00 88 1009.4
20260505060212 10 192 9.7 0.0 0.00 0.00 0.00 91 1009.5
20260505053211 10 149 6.4 0.0 0.00 0.00 0.00 94 1009.4
20260505050211 7 220 0.0 0.0 0.00 0.00 0.00 95 1009.5